Change the Weather History Date:

Thursday, September 19, 2013

  Actual Average Record
Temperature  
Mean Temperature 82 °F 74 °F  
Max Temperature 95 °F 86 °F 97 °F (2005)
Min Temperature 68 °F 63 °F 45 °F (1981)
Degree Days  
Heating Degree Days 0 0  
Month to date heating degree days 0 0  
Since 1 July heating degree days 0 0  
Cooling Degree Days 17 9  
Month to date cooling degree days 305 221  
Year to date cooling degree days 2012 2010  
Growing Degree Days 31 (Base 50)    
Moisture  
Dew Point 71 °F    
Average Humidity 73    
Maximum Humidity 100    
Minimum Humidity 46    
Precipitation  
Precipitation 0.60 in 0.06 in 1.41 in (1987)
Month to date precipitation 1.38 2.03  
Year to date precipitation 49.53 38.60  
Sea Level Pressure  
Sea Level Pressure 30.02 in    
Wind  
Wind Speed 6 mph (SE)    
Max Wind Speed 25 mph    
Max Gust Speed 32 mph    
Visibility 8 miles    
Events Rain    
T = Trace of Precipitation, MM = Missing Value Source: NWS Daily Summary

Daily Weather History Graph

Daily Weather History Graph

Search for Another Location

Airport or City:

Trip Planner

Search our weather history database for the weather conditions in past years. The results will help you decide how hot, cold, wet, or windy it might be!

Date:

Astronomy

Sep. 19, 2013 Rise Set
Actual Time 6:50 AM CDT 7:04 PM CDT
Civil Twilight 6:26 AM CDT 7:28 PM CDT
Nautical Twilight 5:57 AM CDT 7:57 PM CDT
Astronomical Twilight 5:28 AM CDT 8:26 PM CDT
Moon 7:07 PM CDT (9/19) 6:57 AM CDT (9/19)
Length of Visible Light 13h 02m
Length of Day
12h 13m
Full, 100% of the Moon is Illuminated
Sep 19
Full
Sep 26
Last Quarter
Oct 4
New
Oct 11
First Quarter
Oct 18
Full

Hourly Weather History & Observations

Time (CDT) Temp. Heat Index Dew Point Humidity Pressure Visibility Wind Dir Wind Speed Gust Speed Precip Events Conditions
12:53 AM 75.9 °F - 70.0 °F 82% 30.05 in 10.0 mi SE 4.6 mph - N/A   Clear
1:53 AM 75.0 °F - 70.0 °F 84% 30.04 in 10.0 mi SSE 5.8 mph - N/A   Clear
2:53 AM 73.9 °F - 70.0 °F 87% 30.03 in 10.0 mi SE 4.6 mph - N/A   Clear
3:53 AM 69.1 °F - 66.9 °F 93% 30.04 in 6.0 mi Calm Calm - N/A   Clear
4:53 AM 70.0 °F - 68.0 °F 93% 30.04 in 9.0 mi Calm Calm - N/A   Clear
5:53 AM 71.1 °F - 69.1 °F 93% 30.05 in 8.0 mi SE 3.5 mph - N/A   Clear
6:53 AM 71.1 °F - 68.0 °F 90% 30.05 in 7.0 mi ESE 3.5 mph - N/A   Clear
7:53 AM 73.9 °F - 71.1 °F 91% 30.06 in 9.0 mi ESE 5.8 mph - N/A   Clear
8:53 AM 78.1 °F - 71.1 °F 79% 30.07 in 10.0 mi SE 8.1 mph - N/A   Clear
9:53 AM 82.0 °F 86.7 °F 72.0 °F 71% 30.08 in 10.0 mi SE 8.1 mph - N/A   Clear
10:53 AM 86.0 °F 92.2 °F 72.0 °F 63% 30.08 in 10.0 mi ESE 5.8 mph - N/A   Clear
11:53 AM 89.1 °F 96.0 °F 72.0 °F 57% 30.07 in 10.0 mi SE 9.2 mph - N/A   Clear
12:53 PM 91.0 °F 96.6 °F 70.0 °F 50% 30.05 in 10.0 mi SSE 9.2 mph - N/A   Partly Cloudy
1:53 PM 90.0 °F 95.4 °F 70.0 °F 52% 30.01 in 10.0 mi ENE 8.1 mph - N/A   Scattered Clouds
2:53 PM 93.0 °F 99.0 °F 70.0 °F 47% 29.99 in 10.0 mi ENE 8.1 mph - N/A   Scattered Clouds
3:53 PM 93.9 °F 99.1 °F 69.1 °F 44% 29.96 in 10.0 mi ENE 8.1 mph - N/A   Scattered Clouds
4:53 PM 91.0 °F 95.2 °F 68.0 °F 47% 29.95 in 10.0 mi ENE 9.2 mph - N/A   Partly Cloudy
5:53 PM 91.0 °F 95.2 °F 68.0 °F 47% 29.94 in 10.0 mi SSE 9.2 mph - N/A   Partly Cloudy
6:53 PM 79.0 °F - 73.9 °F 84% 29.99 in 8.0 mi SSE 17.3 mph 31.1 mph 0.00 in Rain Light Rain
7:09 PM 75.2 °F - 73.4 °F 94% 29.98 in 1.8 mi South 24.2 mph 29.9 mph 0.18 in Rain Heavy Rain
7:17 PM 75.2 °F - 73.4 °F 94% 29.99 in 0.8 mi South 17.3 mph - 0.40 in Rain Heavy Rain
7:24 PM 75.2 °F - 73.4 °F 94% 29.99 in 1.8 mi South 10.4 mph - 0.46 in Rain Heavy Rain
7:27 PM 75.2 °F - 73.4 °F 94% 29.99 in 2.5 mi South 10.4 mph - 0.47 in Rain Heavy Rain
7:34 PM 75.2 °F - 73.4 °F 94% 29.99 in 7.0 mi SSE 8.1 mph - 0.48 in Rain Light Rain
7:53 PM 75.9 °F - 73.0 °F 91% 30.01 in 5.0 mi South 6.9 mph - 0.58 in Rain Light Rain
8:53 PM 75.9 °F - 73.0 °F 91% 30.01 in 10.0 mi Calm Calm - 0.02 in   Scattered Clouds
9:53 PM 73.9 °F - 73.0 °F 97% 30.01 in 10.0 mi SSE 4.6 mph - N/A   Clear
10:53 PM 73.9 °F - 72.0 °F 93% 30.02 in 10.0 mi SE 4.6 mph - N/A   Clear
11:53 PM 73.9 °F - 72.0 °F 93% 30.02 in 10.0 mi SE 4.6 mph - N/A   Clear